Погода в Комсомольском

Россия / Тульская область     53°57′19″N   37°40′12″E
темп.,
°C
ветер,
м/с
пор.,
м/с
влажн.,
%
обл.,
%
осадки,
мм/ч
давл.,
гПа
погр.,
м
17 мая, пн
пн1700:00+14всв348016 0.0 101346
03:00+13всв478589 0.0 1013113
06:00+14всв4109070 0.8 1013217
09:00+20в697845 0.8 1012437
12:00+24вюв79625 0.0 1011872
15:00+26юв610575 0.0 10101365
18:00+23юв61363100 0.0 1009554
21:00+19вюв6168048 0.0 1010414
18 мая, вт
вт1800:00+17вюв516770 0.0 1009376
03:00+15юв5138038 0.0 1009256
06:00+15юв4108185 0.0 1009235
09:00+19юв61165100 0.0 1009439
12:00+23юв7115233 0.0 1009757
15:00+25вюв6115332 0.0 10071279
18:00+22вюв61465100 0.0 1007651
21:00+18юв41282100 0.0 1007273
19 мая, ср
ср1900:00+17юв3589100 0.0 100783
03:00+16ю239197 0.0 100762
06:00+16юв41086100 0.0 1007259
09:00+19ююв5876100 0.0 1007571
12:00+22ююв795993 0.0 10081543
15:00+21ююв6106494 0.3 10081118
18:00+19ююв597244 0.6 10071072
21:00+15юв3791100 1.7 1008132
20 мая, чт
чт2000:00+14юв379268 0.4 1007136
03:00+13ююв3594100 0.4 1007117
06:00+13ююв3696100 0.8 1007270
09:00+14юв3488100 3.0 1006215
12:00+17ю787119 2.3 10071248
15:00+17ююз8106981 3.0 10071357
18:00+16ююз711795 0.6 10091069
21:00+12юз612853 0.7 1011591
21 мая, пт
пт2100:00+11юз6138976 0.0 1013555
03:00+9юз4109297 0.0 1015266
06:00+10ююз369013 0.0 1016184
09:00+13ююз4890100 0.0 1017389
12:00+16ююз567524 0.1 1018841
15:00+19ююз5664100 0.2 10171403
18:00+16ююз368258 0.4 1017125
21:00+15ююв2386100 0.9 101636